Warroad, MN

9:22 AM CDT on April 30, 2017 (GMT -0500)
Warroad International-Carlson

Weather History for KRRT - May, 2013

Change the Weather History Date:

Thursday, May 16, 2013

  Actual Average Record
Temperature  
Mean Temperature 50 °F -  
Max Temperature 60 °F 65 °F 90 °F (1987)
Min Temperature 39 °F 41 °F 22 °F (1961)
Degree Days  
Heating Degree Days 16    
Moisture  
Dew Point 37 °F    
Average Humidity 56    
Maximum Humidity 87    
Minimum Humidity 36    
Precipitation  
Precipitation 0.00 in - - ()
Sea Level Pressure  
Sea Level Pressure 29.98 in    
Wind  
Wind Speed 4 mph (NE)    
Max Wind Speed 8 mph    
Max Gust Speed -    
Visibility 10 miles    
Events Rain    
Averages and records for this station are not official NWS values.
T = Trace of Precipitation, MM = Missing Value Source: NWS Daily Summary

Daily Weather History Graph

Daily Weather History Graph

Search for Another Location

Airport or City:

Trip Planner

Search our weather history database for the weather conditions in past years. The results will help you decide how hot, cold, wet, or windy it might be!

Date:

Astronomy

May. 16, 2013 Rise Set
Actual Time 5:37 AM CDT 8:58 PM CDT
Civil Twilight 4:59 AM CDT 9:37 PM CDT
Nautical Twilight 4:08 AM CDT 10:28 PM CDT
Astronomical Twilight 3:02 AM CDT 11:35 PM CDT
Moon 11:21 AM CDT (5/16) 1:11 AM CDT (5/16)
Length of Visible Light 16h 37m
Length of Day
15h 21m
Waxing Crescent, 36% of the Moon is Illuminated
May 16
Waxing Crescent
May 17
First Quarter
May 24
Full
May 31
Last Quarter
Jun 8
New

Hourly Weather History & Observations

Time (CDT) Temp. Windchill Dew Point Humidity Pressure Visibility Wind Dir Wind Speed Gust Speed Precip Events Conditions
12:13 AM 53.6 °F - 35.6 °F 51% 29.90 in 10.0 mi North 5.8 mph - N/A   Clear
12:34 AM 51.8 °F - 35.6 °F 54% 29.91 in 10.0 mi North 4.6 mph - N/A   Clear
12:54 AM 48.2 °F - 35.6 °F 62% 29.91 in 10.0 mi Calm Calm - N/A   Clear
1:13 AM 48.2 °F - 35.6 °F 62% 29.92 in 10.0 mi North 4.6 mph - N/A   Clear
1:34 AM 51.8 °F - 35.6 °F 54% 29.92 in 10.0 mi North 4.6 mph - N/A   Clear
1:54 AM 51.8 °F - 35.6 °F 54% 29.92 in 10.0 mi North 4.6 mph - N/A   Clear
2:13 AM 48.2 °F - 35.6 °F 62% 29.92 in 10.0 mi Calm Calm - N/A   Clear
2:34 AM 51.8 °F - 35.6 °F 54% 29.93 in 10.0 mi NNE 4.6 mph - N/A   Clear
2:54 AM 48.2 °F - 33.8 °F 58% 29.92 in 10.0 mi NNE 3.5 mph - N/A   Clear
3:13 AM 44.6 °F - 33.8 °F 66% 29.93 in 10.0 mi Calm Calm - N/A   Clear
3:34 AM 44.6 °F 42.2 °F 33.8 °F 66% 29.93 in 10.0 mi NNE 4.6 mph - N/A   Clear
3:54 AM 44.6 °F 42.2 °F 33.8 °F 66% 29.94 in 10.0 mi NNE 4.6 mph - N/A   Clear
4:13 AM 46.4 °F 43.5 °F 33.8 °F 62% 29.94 in 10.0 mi NNE 5.8 mph - N/A   Clear
4:34 AM 46.4 °F 42.4 °F 35.6 °F 66% 29.94 in 10.0 mi NE 8.1 mph - N/A   Clear
4:54 AM 46.4 °F 45.2 °F 35.6 °F 66% 29.95 in 10.0 mi NE 3.5 mph - N/A   Clear
5:14 AM 39.2 °F - 35.6 °F 87% 29.95 in 10.0 mi Calm Calm - N/A   Clear
5:34 AM 41.0 °F 39.0 °F 35.6 °F 81% 29.96 in 10.0 mi NE 3.5 mph - N/A   Clear
5:54 AM 39.2 °F - 35.6 °F 87% 29.96 in 10.0 mi Calm Calm - N/A   Scattered Clouds
6:14 AM 42.8 °F - 35.6 °F 76% 29.97 in 10.0 mi Calm Calm - N/A   Scattered Clouds
6:34 AM 42.8 °F - 35.6 °F 76% 29.97 in 10.0 mi Calm Calm - N/A   Scattered Clouds
6:52 AM 42.8 °F - 37.4 °F 81% 29.98 in 10.0 mi Calm Calm - N/A   Clear
7:14 AM 44.6 °F - 37.4 °F 76% 29.98 in 10.0 mi Calm Calm - N/A   Clear
7:34 AM 46.4 °F - 37.4 °F 71% 29.99 in 10.0 mi Calm Calm - N/A   Clear
7:53 AM 48.2 °F - 35.6 °F 62% 29.99 in 10.0 mi ENE 3.5 mph - N/A   Clear
8:14 AM 48.2 °F - 35.6 °F 62% 29.99 in 10.0 mi ENE 4.6 mph - N/A   Clear
8:34 AM 50.0 °F - 35.6 °F 58% 30.00 in 10.0 mi ENE 3.5 mph - N/A   Clear
8:54 AM 51.8 °F - 35.6 °F 54% 30.00 in 10.0 mi ENE 3.5 mph - N/A   Clear
9:14 AM 53.6 °F - 35.6 °F 51% 30.00 in 10.0 mi Calm Calm - N/A   Clear
9:34 AM 55.4 °F - 37.4 °F 51% 30.00 in 10.0 mi Calm Calm - N/A   Clear
9:54 AM 55.4 °F - 37.4 °F 51% 30.00 in 10.0 mi ENE 3.5 mph - N/A   Clear
10:14 AM 55.4 °F - 37.4 °F 51% 30.00 in 10.0 mi Calm Calm - N/A   Clear
10:34 AM 57.2 °F - 39.2 °F 51% 30.00 in 10.0 mi NE 4.6 mph - N/A   Clear
10:54 AM 57.2 °F - 39.2 °F 51% 30.00 in 10.0 mi ENE 3.5 mph - N/A   Clear
11:14 AM 55.4 °F - 37.4 °F 51% 30.00 in 10.0 mi ENE 6.9 mph - N/A   Clear
11:34 AM 55.4 °F - 37.4 °F 51% 29.99 in 10.0 mi ENE 8.1 mph - N/A   Clear
11:54 AM 53.6 °F - 37.4 °F 54% 29.99 in 10.0 mi NE 8.1 mph - N/A   Clear
12:14 PM 57.2 °F - 39.2 °F 51% 29.99 in 10.0 mi NE 8.1 mph - N/A   Clear
12:34 PM 57.2 °F - 37.4 °F 48% 30.00 in 10.0 mi NE 8.1 mph - N/A   Clear
12:54 PM 55.4 °F - 37.4 °F 51% 30.00 in 10.0 mi NE 8.1 mph - N/A   Clear
1:14 PM 55.4 °F - 37.4 °F 51% 30.00 in 10.0 mi NE 6.9 mph - N/A   Clear
1:34 PM 59.0 °F - 37.4 °F 45% 30.00 in 10.0 mi NE 5.8 mph - N/A   Clear
1:54 PM 59.0 °F - 37.4 °F 45% 30.00 in 10.0 mi NE 5.8 mph - N/A   Clear
2:14 PM 60.8 °F - 35.6 °F 39% 30.01 in 10.0 mi NE 5.8 mph - N/A   Clear
2:34 PM 60.8 °F - 35.6 °F 39% 30.00 in 10.0 mi NE 6.9 mph - N/A   Clear
2:54 PM 60.8 °F - 35.6 °F 39% 30.01 in 10.0 mi NE 6.9 mph - N/A   Clear
3:14 PM 60.8 °F - 33.8 °F 36% 30.00 in 10.0 mi NE 6.9 mph - N/A   Clear
3:34 PM 60.8 °F - 33.8 °F 36% 29.99 in 10.0 mi NE 5.8 mph - N/A   Clear
3:54 PM 60.8 °F - 33.8 °F 36% 29.99 in 10.0 mi NE 6.9 mph - N/A   Clear
4:14 PM 60.8 °F - 37.4 °F 42% 29.99 in 10.0 mi NE 5.8 mph - N/A   Clear
4:34 PM 60.8 °F - 37.4 °F 42% 30.00 in 10.0 mi NE 8.1 mph - N/A   Clear
5:14 PM 59.0 °F - 35.6 °F 42% 30.00 in 10.0 mi NE 6.9 mph - N/A   Mostly Cloudy
5:34 PM 57.2 °F - 35.6 °F 44% 30.00 in 10.0 mi NE 5.8 mph - N/A Rain Light Rain
5:53 PM 57.2 °F - 35.6 °F 44% 30.01 in 10.0 mi NNE 5.8 mph - N/A   Scattered Clouds
6:14 PM 57.2 °F - 35.6 °F 44% 30.01 in 10.0 mi NE 4.6 mph - N/A   Scattered Clouds
6:34 PM 59.0 °F - 35.6 °F 42% 30.01 in 10.0 mi ENE 5.8 mph - N/A   Scattered Clouds
6:54 PM 57.2 °F - 35.6 °F 44% 30.00 in 10.0 mi NE 6.9 mph - N/A   Scattered Clouds
7:14 PM 55.4 °F - 37.4 °F 51% 30.00 in 10.0 mi ENE 5.8 mph - N/A   Scattered Clouds
7:34 PM 53.6 °F - 37.4 °F 54% 30.00 in 10.0 mi ESE 4.6 mph - N/A   Clear
7:54 PM 53.6 °F - 37.4 °F 54% 30.00 in 10.0 mi East 4.6 mph - N/A   Clear
8:14 PM 53.6 °F - 37.4 °F 54% 30.00 in 10.0 mi East 4.6 mph - N/A   Clear
8:34 PM 51.8 °F - 39.2 °F 62% 30.00 in 10.0 mi Calm Calm - N/A   Clear
8:54 PM 51.8 °F - 37.4 °F 58% 30.00 in 10.0 mi Calm Calm - N/A   Clear
9:14 PM 51.8 °F - 39.2 °F 62% 30.00 in 10.0 mi Calm Calm - N/A   Clear
9:34 PM 51.8 °F - 37.4 °F 58% 30.00 in 10.0 mi East 5.8 mph - N/A   Scattered Clouds
9:54 PM 51.8 °F - 39.2 °F 62% 30.00 in 10.0 mi East 3.5 mph - N/A   Mostly Cloudy
10:14 PM 53.6 °F - 39.2 °F 58% 30.00 in 10.0 mi Calm Calm - N/A   Overcast
10:34 PM 53.6 °F - 39.2 °F 58% 30.00 in 10.0 mi Calm Calm - N/A   Overcast
10:54 PM 51.8 °F - 39.2 °F 62% 30.01 in 10.0 mi Calm Calm - N/A   Overcast
11:14 PM 51.8 °F - 39.2 °F 62% 30.01 in 10.0 mi Calm Calm - N/A   Overcast
11:34 PM 50.0 °F - 39.2 °F 66% 30.01 in 10.0 mi ENE 3.5 mph - N/A   Overcast
11:54 PM 48.2 °F - 39.2 °F 71% 30.01 in 10.0 mi NE 3.5 mph - N/A   Overcast